CAPE
1978 2263 2160 2132 2217 2205 2111 2072 1997 1902 1914 1943 1849 1789 1824 1807 1739 1764 1995 1959 1985 2156 2393 2529 2669 2716 2592 2747 2705 2962 3341 3326 3413 3539 3395 3069 2896 2970 3020 2933 2950 3076 3318 3460 3337 3240 3328 3606 3682 3577 3327 2976 2758 2462 2338 2395 2397 2412 2382 2333 2158 1604 1303 1278 1229 1268 1530 1459 1061 954 1017 1184 748 1388 1267 1275 1515 1593 836 1210 1553 1574 1494 1448 1452
2028 2111 2129 2160 2202 2264 2124 2065 2053 1951 1911 1872 1871 1840 1896 1909 1847 1868 1957 2017 1979 1930 2218 2322 2594 2650 2550 2737 2965 3041 3414 3592 3368 3434 3421 3270 3140 2918 2858 2969 3067 2896 3097 3254 3397 3325 3157 3162 3444 3672 3528 3224 2984 2787 2625 2202 2149 2182 2233 2288 2243 2157 1931 1406 1421 1368 1268 1605 1666 1481 1242 1310 1002 1376 1364 1156 1071 1628 1704 1330 1326 1464 1427 1378 1362
1820 2138 2224 2270 2307 2240 2173 2192 2112 2051 1911 1866 1787 1726 1821 1882 1873 1877 1710 1728 1972 1884 2057 2099 2528 2701 2650 2761 3071 3124 3338 3369 3300 3340 3443 3522 3460 3286 3155 3152 3109 3137 3186 3338 3511 3619 3268 3090 3232 3388 3219 3223 3146 3012 2804 2583 2401 2242 2140 2106 1980 2011 1939 1869 1711 1501 1584 1677 1731 1462 1220 1529 1226 1000 1350 1458 1274 1345 1536 1534 1339 1306 1417 1256 1167
1811 2126 2153 2118 2186 2250 2255 2192 2020 1998 1897 1870 1812 1739 1691 1798 1892 1806 1711 1664 1871 1995 1997 2124 2538 2860 2758 2829 3040 3080 3156 3206 3216 3312 3468 3523 3579 3666 3574 3409 3390 3434 3524 3614 3629 3631 3365 3512 3428 3305 3164 3141 3411 3360 3092 2802 2638 2531 2428 2371 2245 2064 2014 1997 1864 1791 1656 1689 1909 1835 1631 1522 1462 1429 1361 1160 998 948 1163 1101 1264 1348 1271 1270 1247
1772 1950 1949 1941 2000 2200 2190 2096 2039 1990 1889 1849 1833 1742 1675 1665 1776 1759 1722 1669 1766 1987 2116 2226 2483 2723 2510 2708 2899 2971 2994 3126 3212 3029 3143 3314 3424 3437 3587 3718 3701 3672 3629 3713 3657 3693 3708 3658 3510 3508 3271 3092 3328 3485 3322 3160 2878 2636 2579 2552 2385 2264 2047 1947 1942 1758 1635 1692 1859 1990 1958 1821 1602 1391 1218 1150 1170 1346 1597 1519 1194 1196 1539 1249 932
1716 1844 1826 1825 2009 2178 2197 2068 1952 1956 1914 1838 1809 1748 1690 1643 1684 1778 1759 1776 1798 1857 2099 2142 2232 2541 2516 2580 2791 2977 3033 3108 3212 3186 2939 3144 3313 3314 3412 3616 3542 3638 3644 3599 3678 3698 3599 3656 3645 3603 3494 3347 3459 3528 3477 3064 2958 3005 2873 2760 2628 2426 2288 2193 2032 1926 1863 1846 1910 1974 2085 1947 1902 1846 1714 1539 1377 1172 1163 1436 1794 1725 1498 1339 1064
1790 1794 1818 1802 2096 2259 2166 2071 2009 1938 2002 1897 1852 1802 1708 1651 1632 1726 1783 1822 1844 1868 1911 2166 2264 2359 2589 2638 2632 2907 3048 3083 3217 3247 3205 3187 3307 3428 3221 3371 3461 3496 3552 3420 3371 3452 3522 3531 3596 3665 3612 3603 3573 3570 3584 3428 3132 3223 3135 3062 2870 2671 2483 2419 2239 2170 2093 2036 2022 2014 2030 1962 1811 1790 1599 1512 1477 1468 1376 1345 1383 1567 2068 1865 1660
1828 1874 1837 1913 2214 2366 2251 2169 2040 2068 2052 2119 2035 1886 1807 1743 1768 1740 1820 1871 1840 1905 1927 2022 2271 2345 2421 2583 2687 2814 3058 3096 3162 3278 3276 3220 3243 3325 3354 3245 3262 3389 3453 3434 3327 3231 3317 3371 3304 3462 3636 3688 3649 3669 3636 3552 3511 3172 3083 2973 2898 2508 2379 2514 2294 2269 2220 2096 2076 2124 2121 2095 2105 1962 1790 1713 1728 1737 1752 1814 1837 1874 1900 1855 1880
1928 1880 1940 2030 2353 2470 2325 2277 2196 2194 2171 2268 2177 2042 1955 1923 1890 1897 1915 1897 1848 1905 1976 1985 2176 2345 2356 2524 2677 2748 2870 2992 2976 3160 3188 3264 3234 3130 3286 3339 3328 3346 3439 3358 3342 3386 3332 3246 3236 3332 3453 3560 3097 3022 3122 3187 3414 3408 3414 3131 2961 2775 2482 2389 2521 2548 2547 2488 2484 2195 1886 1920 1930 2048 2117 2211 2280 2296 2125 2197 2201 2279 2352 2309 2184
1990 1890 1996 2231 2510 2462 2487 2416 2369 2356 2328 2411 2388 2218 2108 2075 1991 1996 2011 2012 1993 1994 2000 2073 2098 2243 2378 2547 2722 2780 2828 2891 2813 2483 2587 3061 3251 3105 3161 3347 3384 3302 3406 3492 3341 3300 3338 3331 3161 3164 2881 2778 2628 2501 2394 2334 2305 2599 3216 3449 3281 3208 2999 2886 2863 2822 2796 2663 2442 2390 2249 2219 2343 2453 2548 2521 2350 2283 2271 2188 2297 2385 2431 2433 2418
2122 2009 2133 2381 2437 2432 2554 2484 2438 2429 2424 2401 2412 2374 2287 2234 2184 2183 2131 2100 2066 2148 2144 2092 2092 2090 2214 2298 2488 2593 2671 2716 2452 2236 2116 2102 2642 3175 3245 3338 3451 3418 3350 3465 3476 3271 3247 3386 3496 3400 2860 2460 2368 2358 2345 2309 2306 2306 2314 2329 2368 2980 3031 3140 3140 3125 3040 2630 2633 2524 2493 2536 2562 2605 2597 2633 2561 2419 2210 2060 2048 2095 2279 2400 2493
2017 2219 2277 2411 2407 2500 2439 2412 2376 2405 2408 2353 2386 2352 2325 2286 2338 2333 2227 2220 2304 2221 2263 2156 2220 2079 2052 2164 2252 2397 2533 2315 2165 2032 1947 1927 1944 2596 2950 3113 3097 3194 3281 3155 3252 3321 3354 3245 3276 3353 3422 3512 3514 3281 2597 2370 2333 2327 2338 2367 2392 2412 2469 2766 2971 3091 3214 3206 3168 2978 2792 2626 2639 2675 2674 2600 2518 2294 2115 2106 2320 2471 2489 2482 2414
1967 2279 2194 2346 2489 2464 2403 2434 2424 2390 2388 2348 2371 2379 2389 2395 2363 2288 2175 2210 2255 2345 2290 2183 2251 2260 2191 2315 2267 2263 2403 2162 1964 1824 1789 1766 1837 1942 2524 2778 2928 3039 3161 3226 3192 3264 3419 3424 3352 3223 3333 3043 3164 3313 3585 3442 2950 2692 2484 2455 2474 2520 2596 2643 2659 2680 2712 2725 2712 2816 2844 2738 2594 2564 2573 2514 2299 2240 2473 2518 2417 2285 2271 2334 2327
2240 2167 2310 2431 2473 2469 2548 2474 2448 2431 2443 2425 2448 2431 2404 2372 2327 2274 2217 2290 2341 2375 2243 2302 2345 2444 2383 2393 2483 2397 2339 2230 2003 1804 1675 1651 1679 1722 2294 2509 2751 2925 3020 3096 3186 3266 3394 3484 3444 3422 3539 3657 3544 3431 3632 3704 3880 3572 3186 2954 2759 2676 2683 2688 2727 2744 2729 2661 2621 2560 2477 2443 2476 2476 2329 2337 2576 2545 2488 2468 2431 2336 2398 2363 2288
2357 2307 2422 2471 2538 2540 2589 2513 2537 2528 2552 2512 2481 2464 2429 2445 2375 2291 2192 2250 2404 2404 2332 2316 2366 2408 2412 2330 2407 2411 2254 2053 2017 1875 1724 1650 1630 1660 2043 2436 2608 2816 2935 3087 3243 3248 3294 3430 3522 3521 3575 3688 3580 3572 3617 3770 3678 3555 3562 3466 3504 3517 3160 3037 2971 2914 2820 2687 2632 2565 2446 2431 2507 2600 2701 2521 2410 2397 2333 2235 2135 2144 2142 2236 2153
2374 2443 2454 2481 2522 2541 2568 2586 2631 2647 2637 2560 2512 2491 2522 2545 2548 2431 2269 2195 2253 2263 2400 2303 2338 2410 2395 2343 2211 2247 2231 1778 1752 1747 1724 1692 1674 1683 1806 2468 2693 2742 2905 3092 3198 3323 3398 3406 3480 3600 3711 3658 3483 3240 3140 3510 3558 3416 3398 3292 3430 3541 3679 3291 3125 3049 3060 3014 2967 2870 2884 2933 2910 2748 2554 2345 2244 2353 2438 2452 2328 2242 2130 1953 1975
2510 2492 2500 2512 2462 2480 2477 2544 2698 2733 2700 2633 2596 2562 2624 2643 2617 2545 2432 2298 2289 2315 2380 2357 2402 2401 2390 2376 2362 2338 2350 2044 1657 1508 1460 1486 1539 1573 1884 2363 2640 2748 2841 2981 3154 3218 3327 3475 3550 3534 3504 3634 3487 3222 2930 2696 3455 3271 3251 3318 3384 3543 3281 4468 3170 3183 3222 3268 3219 3088 3081 2995 2812 2676 2441 2321 2520 2481 2398 2247 2157 1805 1684 1640 1666
2624 2685 2485 2526 2536 2531 2561 2626 2773 2802 2850 2783 2716 2654 2640 2621 2630 2600 2563 2444 2312 2418 2450 2455 2468 2499 2410 2430 2390 2480 2437 2339 1890 1673 1527 1404 1345 1600 2165 2396 2570 2720 2803 2957 3092 3224 3286 2872 3115 3356 3456 3506 3192 3009 2801 2622 3080 3188 3091 3287 3450 3519 3285 3609 3355 3328 3316 3265 3080 2982 2852 2642 2543 2720 2851 2806 2547 2289 2040 1833 1392 1255 1284 1217 1104
2740 2832 2786 2756 2741 2740 2733 2796 2888 2901 2968 2915 2800 2781 2772 2784 2675 2703 2632 2553 2500 2598 2521 2543 2598 2608 2524 2247 2301 2322 2446 2406 2214 2137 2012 1872 1717 1805 2202 2291 2449 2621 2649 2755 2973 3066 3170 2977 2474 2567 2815 3066 2910 2826 2693 2541 2997 3236 3307 3185 3245 3382 3775 4056 4226 3690 3316 3261 3160 2829 2442 2601 2888 2752 2551 2366 2154 1681 1086 774 707 800 949 1057 1097
2970 2947 2869 2933 2971 2989 2954 3148 3126 2948 3038 3052 3038 3024 3028 2897 2918 2915 2822 2696 2714 2734 2695 2685 2689 2732 2457 2498 2532 2528 2511 2503 2490 2421 2359 2278 2187 2078 2208 2353 2386 2467 2594 2552 2763 2970 3071 3199 2915 2346 2120 2009 1997 2054 2058 2313 2710 3134 3266 3250 2946 3396 4046 3209 3255 3110 3007 2771 2400 2512 2681 2582 2494 2467 2261 1824 1532 1601 1422 1250 1181 1058 646 636 616
3386 3374 3290 3205 3219 3244 3138 3260 3222 3074 3122 3206 3186 3130 3146 3123 3034 3078 2984 2850 2903 2964 2934 2791 2636 2692 2748 2808 2827 2832 2849 2827 2810 2793 2726 2628 2510 2382 2286 2396 2415 2509 2659 2663 2666 2709 2914 3126 3128 2796 2382 2142 1950 2134 2361 2566 2740 2827 2858 2944 3205 3319 3486 3523 3096 2596 2350 2245 2354 2371 2299 2228 2041 1704 1365 1266 1022 974 974 1010 1090 852 717 703 518
3750 3803 3890 3570 3437 3446 3417 3511 3433 3249 3346 3463 3552 3508 3389 3238 3207 3218 2840 2999 3158 3206 3204 2873 2957 3035 3112 3179 3207 3208 3202 3193 3158 3119 3014 2873 2754 2626 2490 2366 2484 2596 2734 2882 2832 2857 2943 3076 3431 3253 2592 2295 2262 2428 2608 2804 2983 3054 3232 3350 3423 3562 2969 2987 2645 2533 2418 2399 2178 2084 1854 1392 882 852 569 501 463 375 329 340 362 398 442 475 426
3774 3815 3870 3656 3812 3717 3695 3732 3611 3496 3615 3752 3866 3798 3736 3579 3549 3556 3503 3417 3430 3244 3311 3167 3182 3242 3286 3323 3351 3389 3404 3408 3373 3368 3314 3203 3079 2924 2769 2602 2428 2376 2579 2904 3011 2984 3126 3283 3366 2850 2524 2362 2507 2662 2839 3039 3157 3259 3392 3504 3551 3678 3050 2338 2222 2365 2534 2363 1861 1168 701 767 895 948 888 686 344 168 194 184 219 191 205 194 188
3883 3886 3944 3971 4049 3929 3977 4012 3941 3777 3960 4124 4072 4005 4016 3938 3842 3820 3781 3646 3515 3248 3230 3276 3303 3349 3369 3410 3425 3462 3587 3540 3554 3534 3510 3464 3353 3196 3038 2870 2682 2524 2405 2487 2877 2982 3101 3394 3697 2748 2476 2591 2745 2915 3024 3142 3303 3450 3513 3602 3671 3637 3328 2560 2355 2287 2262 1982 1067 904 1095 868 527 380 170 58 13 34 39 65 104 132 128 114 149
3972 3969 3859 3947 4108 4028 4157 4144 4132 4129 4270 4358 4271 4214 4235 4176 4028 3987 3814 3687 3439 3380 3404 3414 3452 3464 3498 3522 3551 3592 3620 3638 3652 3628 3594 3560 3505 3395 3247 3087 2924 2761 2649 2560 2494 3028 3437 2983 2807 2588 2688 2787 2886 3006 3180 3331 3448 3489 3482 3589 3598 2589 2539 2351 2296 2233 1959 1010 781 588 384 313 116 75 96 73 16 27 116 117 22 0 0 0 0
4145 3979 3920 4064 4172 4141 4335 4298 4490 4494 4496 4370 4271 4318 4202 4251 4120 4167 3959 3580 3509 3517 3532 3527 3578 3596 3613 3648 3660 3724 3733 3733 3731 3710 3672 3611 3560 3501 3400 3255 3120 2978 2874 2780 2738 2694 2673 2649 2666 2707 2780 2965 3086 3124 3232 3340 3382 3480 3614 3544 3386 2829 2661 2451 2189 2083 1182 203 89 41 15 1 0 0 0 0 0 1 0 0 0 0 0 0 0
4667 4741 4727 4482 4454 4320 4280 4142 4292 4438 4503 4375 4383 4452 4368 4412 4262 4279 4126 3954 3702 3810 3629 3646 3666 3671 3688 3715 3751 3930 3813 3807 3786 3764 3720 3694 3634 3562 3473 3403 3285 3192 3091 3037 2987 2959 2895 2824 2802 2834 3009 3158 3223 3324 3419 3497 3519 3704 3539 3366 3102 2818 2276 2223 2211 1815 206 1 0 0 0 0 0 0 0 0 0 0 0 0 0 0 0 0 0
4748 4650 4691 4757 4724 4766 4729 4500 4592 4588 4650 4518 4473 4492 4445 4385 4449 4423 4269 4132 4081 3725 3854 3741 3657 3663 3719 3952 4048 4069 3823 3820 3806 3794 3770 3754 3694 3640 3580 3511 3469 3426 3370 3317 3260 3182 3113 3037 3030 3116 3218 3367 3468 3517 3542 3497 3584 3516 3391 3030 2521 2400 2314 2091 1950 587 0 0 0 0 0 0 0 0 0 0 0 0 0 0 0 0 1 2 3
5181 4920 4578 4431 4313 4270 4486 4634 4643 4700 4857 4930 4316 4261 4329 4555 4631 4578 4156 4460 4345 4217 4207 4114 4156 4014 3977 4104 4187 4183 4164 3908 3824 3778 3792 3799 3798 3773 3733 3670 3622 3605 3597 3538 3430 3349 3312 3233 3246 3448 3537 3559 3620 3576 3586 3637 3425 3432 3163 2980 2448 2237 2010 1758 352 0 0 0 0 0 0 0 0 0 0 0 0 0 0 0 1 2 3 2 1
5572 5565 5226 5056 4871 4420 4413 4508 4347 4478 4414 3810 3850 3910 3944 4131 4182 4164 4920 4204 3935 3788 3807 4500 4242 4167 3936 4141 4282 4430 4459 3927 3931 3976 3958 3938 3918 3884 3846 3815 3826 3834 3806 3660 3579 3638 3623 3590 3616 3636 3694 3652 3581 3629 3581 3307 3192 3033 2720 2192 1942 1666 959 0 0 0 0 0 0 0 0 0 0 0 0 0 0 0 0 0 0 1 3 0 1
5599 5334 5085 5330 5118 5022 4832 4754 4950 4668 3794 3596 3574 3578 3621 3737 3842 3924 3932 4056 3976 3912 3932 3966 3973 3972 4554 4724 4065 4070 4066 4063 4087 4072 4052 4031 4010 4007 3996 4022 4063 4036 3979 3850 3780 3726 3733 3686 3741 3798 3773 3678 3674 3476 3413 3234 3146 2513 2326 2026 1526 541 0 0 0 0 0 0 0 0 0 0 0 0 0 0 0 0 0 0 0 0 0 0 0
5754 5572 5502 5221 4561 4911 4935 4468 4018 3956 3872 3765 3733 3654 3641 3707 3713 3796 3891 3959 3939 3994 4055 4083 4072 4058 4090 4451 4201 4293 4286 4250 4236 4247 4219 4191 4165 4154 4143 4102 4076 4060 4056 4061 4087 4029 3892 3814 3892 3960 3942 3594 3035 3032 2809 2608 2508 2196 2014 1498 427 0 0 0 0 0 0 0 0 0 0 0 0 0 0 0 0 0 0 0 0 0 0 0 0
5243 5070 5032 4637 4538 4372 4239 4096 3941 3836 3798 3747 3677 3621 3614 3637 3737 3725 3768 3892 3944 4017 4020 4078 4137 4190 4297 4396 4399 4406 4436 4436 4424 4396 4391 4371 4330 4292 4261 4240 4242 4203 4139 4176 4191 4136 4025 3926 3954 3818 3283 2916 2806 2642 2478 2385 2212 2059 1924 837 0 0 0 0 0 0 0 0 0 0 0 0 0 0 0 0 0 0 0 0 0 0 0 0 0
4753 4793 4767 4747 4625 4350 4322 4385 4250 4094 3890 3804 3703 3715 3714 3769 3767 3830 3835 3695 3838 3958 4042 4116 4196 4312 4411 4462 4514 4498 4469 4500 4491 4453 4480 4519 4487 4364 4222 4159 4118 4199 4062 4106 4008 3789 3732 3677 3307 2991 2832 2657 2650 2634 2679 2580 2450 2235 1336 0 0 0 0 0 0 0 0 0 0 0 0 0 0 0 0 0 0 0 0 0 0 0 0 0 0
4016 4094 4142 4176 4487 4281 4366 4449 4526 4454 4246 4100 4000 3892 3856 3922 3986 3950 3963 4026 3897 3827 3957 4093 4252 4379 4558 4647 4647 4670 4698 4677 4706 4658 4526 4324 4234 4034 3690 3668 3666 3664 3684 3681 3495 3320 3146 3005 2854 2710 2588 2643 2514 2519 2494 2308 1822 1239 640 0 0 0 0 0 0 0 0 0 0 0 0 0 0 0 0 0 0 0 0 0 0 0 0 0 0
3504 3750 3974 4062 4170 4068 4260 4459 4516 4546 4510 4435 4287 4206 4165 4222 4222 4230 4248 4265 4293 4147 3889 3978 4255 4414 4470 4590 4510 4267 4176 4164 4442 4209 3878 3657 3659 3756 3334 3098 3221 2412 2719 3230 3231 2922 2785 2753 2641 2542 2354 2140 2110 1902 2037 1878 1890 1728 906 0 0 0 0 0 0 0 0 0 0 0 0 0 0 0 0 0 0 0 0 0 0 0 0 0 0
3066 3226 3584 3982 4166 4204 4148 4222 4373 4444 4486 4539 4498 4382 4310 4260 4260 4258 4010 4132 3944 3955 3784 3816 3829 4007 4174 4248 4015 3906 3871 3895 3984 3724 3437 3492 3479 3328 2936 2911 2757 2699 2248 2462 2360 2331 2684 2658 2474 2154 1930 1726 1779 1802 1907 1848 1544 1110 296 0 0 0 0 0 0 0 0 0 0 0 0 0 0 0 0 0 0 0 0 0 0 0 0 0 0
1970 2771 3279 3765 3789 3772 3749 3813 4007 4013 3868 3922 4250 4447 4484 4439 4486 4480 4038 3842 3770 3809 3706 3753 3671 3687 3726 3649 3351 3410 3737 3516 3336 3106 3472 3645 3270 3049 2381 2202 2418 2670 2266 2503 2305 2102 2013 2086 2132 1901 1346 1334 1515 1492 1390 1439 1146 598 0 1 1 0 0 0 0 0 0 0 0 0 0 0 0 0 0 0 0 0 0 0 0 0 0 0 0
1440 1620 2284 3234 3286 3375 3518 3545 3439 3532 3593 3426 3560 3849 4075 4248 4375 4339 4368 4123 3882 3776 3837 3840 3816 3682 3348 3222 3147 3037 3072 3228 2673 2400 2490 2554 2773 2434 2356 1963 1872 1695 1522 1462 1592 1693 1782 1809 1638 1512 1427 1418 1269 882 269 1 1 1 1 0 0 0 0 0 0 0 0 0 0 0 0 0 0 0 0 0 0 0 0 0 0 0 0 0 0
1196 1260 1360 1608 1780 2428 2964 3146 3147 3154 3260 3292 3506 3567 3675 3747 3828 3750 3874 4010 3806 3678 3629 3800 3557 3012 2872 2820 2861 2644 2608 2706 2664 2768 2536 2477 2353 2268 2192 2078 2017 1897 1664 1376 1122 950 841 816 904 1082 1102 840 191 0 1 1 1 0 1 0 0 0 0 0 0 0 0 0 0 0 0 0 0 0 0 0 0 0 0 0 0 0 0 0 0
1059 1007 1135 1280 1440 1501 1574 1727 2073 2579 2832 2961 3305 3536 3569 3367 3284 3180 3220 3274 3507 3633 3744 3724 3268 2722 2592 2724 2716 2666 2698 2631 2584 2596 2547 2496 2418 2348 2082 1918 1801 1719 1606 1398 1297 1260 1161 1017 956 894 804 665 0 1 2 1 1 1 1 0 0 0 0 0 0 0 0 0 0 0 0 0 0 0 0 0 0 0 0 0 0 0 0 0 0
1110 1046 958 1021 1108 1208 1303 1430 1650 1871 1968 2158 2575 3054 3417 3497 3271 2943 2858 2802 2796 2861 2931 3167 2944 2692 2650 2583 2521 2542 2468 2260 2141 2128 2112 2067 2031 1947 1759 1664 1604 1632 1593 1249 1221 1249 1174 959 646 2 2 2 1 1 1 0 0 1 0 0 0 0 0 0 0 0 0 0 0 0 0 0 0 0 0 0 0 0 0 0 0 0 0 0 0
1091 1066 1072 925 907 1059 1158 1304 1335 1455 1550 1708 2022 2626 2983 3297 3388 3135 2750 2632 2719 2716 2620 2678 2648 2604 2703 2560 2286 1832 1544 1434 1334 1179 1123 1218 1453 1620 1607 1508 1546 1483 1442 1379 1360 1388 1196 940 313 1 0 0 1 0 0 0 0 0 0 0 0 0 0 0 0 0 0 0 0 0 0 0 0 0 0 0 0 0 0 0 0 0 0 0 0
1004 1048 1091 1060 932 894 1009 1087 1135 1249 1338 1431 1659 1940 2364 2622 2817 3077 3109 2801 2673 2680 2633 2162 2195 2205 2079 1912 1793 1689 1681 1502 1390 1326 1467 1663 1666 1552 1472 1442 1319 1227 1293 1229 954 163 0 0 2 1 2 2 1 1 1 2 1 1 0 1 0 0 0 0 0 0 0 0 0 0 0 0 0 0 0 0 0 0 0 0 0 0 0 0 0
831 835 840 853 860 882 879 881 948 1034 1161 1215 1346 1585 1745 1893 2252 2529 2827 2824 2678 2543 2393 2052 1833 1952 2096 1888 1783 1436 1421 1487 1241 1282 1317 1511 1436 1429 1406 1350 1204 1104 911 768 268 0 1 1 2 2 2 2 2 2 0 0 1 2 1 1 2 1 0 1 0 0 0 0 0 0 0 0 0 0 0 0 0 0 0 0 0 0 0 0 0
775 694 636 705 824 892 817 826 876 874 899 960 1063 1200 1366 1519 1589 1865 2335 2687 2620 2306 1922 1683 1618 1670 1728 1769 1658 1509 1262 1066 998 1021 1243 1294 1222 1127 1092 1164 1026 678 379 0 1 2 0 0 0 1 1 1 1 2 4 4 3 2 3 3 2 2 2 4 4 2 0 0 0 0 0 0 0 0 0 0 0 0 0 0 0 0 0 0 0
626 589 460 427 570 694 782 694 687 770 834 918 1010 1148 1291 1452 1434 1675 2238 2544 2407 2194 2024 1882 1794 1613 1370 1355 1388 1376 1248 1096 940 886 800 643 495 329 51 11 9 0 0 1 1 0 0 0 0 0 0 0 0 0 0 0 0 2 0 1 4 3 4 2 0 4 4 3 1 2 0 0 0 0 2 1 0 0 0 0 0 0 0 0 0
457 500 468 409 399 507 619 634 635 696 769 825 884 990 1056 1040 1188 1332 1680 2014 2001 1881 1796 1688 1373 1120 1054 1014 949 864 876 731 538 506 176 0 0 0 0 0 0 0 0 0 1 0 0 2 3 2 1 2 1 0 1 2 3 0 0 0 1 4 4 9 8 5 6 4 0 1 2 3 2 4 3 0 0 0 0 0 0 0 0 0 0
372 382 426 492 538 517 513 623 622 638 710 754 792 823 854 925 939 868 956 1224 1589 1471 1263 1195 947 898 841 717 649 632 568 423 206 1 0 0 0 1 0 1 2 1 1 1 1 0 0 0 1 2 4 6 6 3 1 1 1 0 0 0 3 5 7 7 9 7 6 6 4 2 3 4 5 4 1 5 1 0 0 0 0 0 0 0 0
127 115 141 0 332 467 556 577 616 730 774 730 660 653 633 670 747 796 798 805 793 583 496 444 461 457 527 523 508 423 324 154 8 70 51 114 230 112 2 3 2 2 1 0 0 0 2 2 2 3 4 5 5 4 4 4 3 2 1 0 0 1 3 4 4 3 2 2 2 2 1 4 1 1 0 1 2 1 0 0 0 0 0 0 0
132 166 236 69 223 408 449 530 578 600 613 581 490 517 546 622 660 722 744 719 660 622 569 474 339 322 255 240 227 224 176 14 14 4 8 36 0 1 0 1 1 1 2 4 3 0 0 0 0 0 0 0 0 0 0 0 2 4 7 6 3 1 1 0 0 0 1 0 1 0 2 4 3 0 0 0 0 0 0 0 0 0 0 0 0
Wind_Speed
15 18 19 18 18 16 15 15 14 15 14 14 14 14 14 13 11 10 11 9 8 7 6 5 4 4 2 3 2 2 2 3 4 5 5 3 2 1 1 1 2 3 2 3 4 6 8 8 8 7 5 5 6 7 7 6 7 8 8 8 9 8 8 9 12 15 11 9 9 10 8 8 10 12 13 13 14 16 18 18 18 19 20 21 22
15 17 19 19 16 17 16 17 17 17 15 15 15 15 15 15 14 13 11 10 10 8 7 6 6 5 3 2 3 2 2 3 4 6 6 5 4 3 2 1 1 3 2 2 3 2 3 6 7 7 5 6 7 7 7 7 7 8 7 8 8 8 7 9 10 11 14 8 8 9 9 11 11 13 14 12 11 14 17 19 19 21 21 22 23
15 19 20 19 17 18 18 19 19 16 14 16 15 15 16 16 16 13 12 12 12 10 8 6 7 6 5 4 4 3 2 2 3 4 6 6 6 5 5 4 1 1 0 1 1 1 2 3 5 4 3 4 5 7 7 7 7 8 9 8 8 8 6 8 9 11 12 10 8 9 9 11 13 11 12 13 14 15 16 18 20 22 24 25 25
16 18 19 19 19 20 20 20 18 16 15 16 15 15 17 17 16 14 13 13 13 12 9 8 8 8 7 6 5 4 3 3 3 5 6 7 7 6 6 5 3 2 1 0 1 2 2 2 2 2 2 4 4 4 5 5 5 6 8 8 7 7 6 6 9 10 9 10 9 9 8 9 9 11 11 12 12 14 16 16 20 22 23 25 26
16 17 17 18 19 20 19 19 18 16 15 17 16 16 17 18 17 14 14 13 12 13 12 10 9 9 8 6 5 4 3 3 4 4 5 6 7 7 6 6 4 3 2 1 2 2 2 2 2 2 1 3 4 3 4 4 4 5 6 7 6 5 4 5 8 8 9 10 8 8 8 8 8 10 12 11 12 15 18 20 21 22 24 24 24
17 18 18 18 19 18 19 18 16 16 16 17 17 18 18 18 17 16 14 13 13 13 12 12 11 10 8 7 5 5 5 4 4 4 4 6 7 7 7 7 5 4 3 2 3 3 2 2 2 2 2 1 1 3 4 7 7 4 5 6 6 4 4 6 8 9 8 8 7 5 8 9 9 13 16 18 17 16 18 20 22 25 26 25 25
18 19 18 17 19 18 18 17 18 18 19 19 21 21 19 18 17 16 16 14 13 13 12 11 12 11 9 7 5 5 5 5 5 5 5 5 6 7 7 7 7 6 5 4 4 3 2 2 2 3 3 3 1 1 3 4 7 5 3 4 5 5 5 7 8 8 8 6 5 4 4 8 12 12 16 21 22 22 19 17 19 23 27 30 30
19 19 19 18 19 18 17 18 18 20 21 22 22 21 21 20 18 18 17 15 13 13 12 12 12 11 9 7 6 6 6 5 6 6 5 5 6 7 7 7 7 6 6 5 4 3 3 2 2 3 4 4 3 1 2 4 6 8 6 5 5 6 7 6 7 6 5 5 4 3 6 8 12 15 18 23 21 21 24 23 22 23 28 31 32
19 19 18 17 17 18 19 20 21 22 23 23 22 22 21 21 20 19 18 16 17 15 14 13 12 11 9 8 7 7 6 5 7 8 7 6 6 6 7 7 6 6 5 5 5 5 4 3 3 3 4 6 5 3 2 5 7 7 6 5 4 5 6 6 5 5 5 7 7 8 8 10 15 19 20 23 24 22 23 27 26 27 26 24 27
20 18 16 16 19 20 21 22 22 23 23 23 22 22 22 22 21 19 18 17 17 17 15 14 12 11 10 9 9 8 7 7 8 10 10 8 7 7 8 7 6 5 5 5 5 5 5 5 4 3 5 7 7 4 2 1 2 4 4 1 2 3 4 4 5 6 7 9 11 13 13 12 15 22 23 24 26 26 25 27 26 25 26 26 27
21 18 15 17 20 21 21 22 23 22 22 23 23 22 22 23 22 19 18 17 16 17 16 13 12 11 10 10 9 8 7 7 9 13 12 10 8 7 7 7 6 5 4 4 5 5 6 6 6 5 6 7 5 4 2 2 3 4 5 6 6 6 4 4 6 9 11 11 12 15 17 15 18 22 26 26 28 29 29 29 27 28 30 29 26
18 18 18 21 21 20 20 21 21 21 22 22 22 22 22 21 21 19 18 17 18 17 15 13 12 12 12 9 8 8 7 8 12 13 13 13 11 8 7 7 6 5 4 4 4 5 6 7 7 8 8 8 8 7 4 3 3 4 6 8 11 11 11 9 8 10 13 14 16 16 17 21 24 28 29 29 28 28 33 34 36 34 32 33 34
20 21 21 22 20 19 20 20 20 21 21 21 22 23 21 20 19 19 17 17 18 16 14 13 13 13 11 9 7 7 7 10 14 14 14 14 13 11 7 6 5 5 4 4 3 5 7 8 8 8 10 11 9 6 6 6 7 8 9 10 12 16 17 18 19 19 17 18 18 18 23 23 25 29 31 29 29 28 29 34 39 37 35 34 34
24 23 23 21 20 19 19 19 19 19 21 22 22 21 20 18 19 19 19 19 17 15 14 12 13 13 11 9 8 8 7 11 15 15 15 15 15 14 8 6 5 4 3 3 4 4 5 7 8 8 9 9 8 7 7 7 7 9 9 11 13 18 22 23 24 26 26 20 19 19 21 25 24 29 36 37 36 34 33 36 37 34 32 33 32
25 24 23 22 21 19 18 17 18 19 20 21 20 19 18 19 19 19 18 16 16 15 14 13 13 12 10 9 9 8 8 10 16 17 16 17 17 16 10 8 5 4 3 2 2 3 4 6 7 7 8 8 9 9 7 8 9 8 5 6 12 14 19 23 24 23 21 21 22 22 21 23 23 25 32 37 42 41 39 38 40 40 38 34 32
25 25 24 21 18 17 17 17 17 18 18 18 17 17 18 18 18 19 18 16 16 16 15 14 13 12 10 9 8 7 9 13 16 17 18 17 19 16 12 9 7 5 4 4 4 5 5 5 6 7 8 7 9 14 13 12 11 10 8 8 9 12 16 22 29 31 28 27 29 29 31 31 28 30 35 36 36 37 37 37 38 40 39 37 35
24 23 21 20 18 18 17 17 17 17 17 16 15 15 17 17 18 19 17 16 16 15 14 14 14 13 11 10 8 9 11 15 18 18 19 20 20 15 13 11 9 7 5 5 6 5 6 6 7 8 8 8 10 17 18 20 15 14 14 11 10 13 14 22 32 35 35 34 33 33 32 33 33 34 36 39 41 38 36 35 37 39 39 38 39
22 22 21 20 20 19 18 18 17 17 16 13 13 15 16 17 17 18 16 14 13 13 14 14 13 13 11 10 10 11 11 17 22 20 21 23 20 15 14 12 9 9 8 8 8 8 6 7 7 7 7 7 10 17 23 26 21 20 19 16 13 14 17 22 29 26 29 26 27 30 35 36 33 31 31 35 42 48 46 44 42 40 41 42 41
21 21 20 21 21 20 19 18 17 16 14 13 13 13 13 14 15 15 14 13 12 14 14 13 12 13 11 10 12 11 12 17 24 22 24 25 20 15 14 12 10 10 10 9 10 10 9 10 10 8 6 6 9 16 25 28 24 22 23 21 17 16 21 25 28 27 28 30 30 32 32 33 34 34 34 35 42 52 53 50 44 44 43 43 42
19 20 20 20 20 20 19 18 16 14 13 12 12 12 13 13 12 12 12 12 12 12 12 12 11 12 12 11 12 12 13 15 24 26 26 26 23 17 15 13 11 11 11 11 11 11 11 11 13 14 9 7 8 12 22 31 26 24 25 25 25 21 30 34 31 28 27 31 33 35 34 34 36 37 38 40 44 49 51 49 47 45 44 43 43
21 21 21 20 19 18 17 15 13 11 11 11 11 11 11 11 11 10 10 10 10 10 9 10 10 11 11 12 12 12 14 15 21 28 27 27 23 18 15 12 12 14 13 14 13 12 13 14 13 16 16 14 13 15 18 28 29 28 29 28 30 34 37 34 35 32 31 31 32 34 36 39 41 42 42 43 43 44 45 45 46 46 46 44 43
23 22 20 18 16 15 14 14 12 12 11 12 12 11 11 10 10 9 10 10 9 8 9 9 10 10 11 10 11 11 13 16 16 26 28 28 24 21 14 13 15 15 14 13 14 13 14 16 16 18 22 22 21 21 23 28 35 32 37 47 49 48 40 35 34 31 30 31 34 36 39 39 40 41 42 42 42 43 42 41 43 45 46 47 47
22 20 18 17 16 14 14 13 14 14 13 12 11 11 12 11 11 11 11 10 9 8 7 6 7 7 8 8 9 11 13 17 17 19 26 27 26 22 16 12 16 16 14 13 14 16 17 19 18 24 29 29 29 30 34 40 40 39 49 51 50 53 51 43 38 30 29 32 34 37 39 41 43 44 45 45 45 44 42 41 42 44 46 47 47
24 22 22 20 19 17 16 15 15 15 14 14 14 13 14 14 13 13 11 11 12 9 7 8 8 6 6 7 7 8 12 14 18 18 22 27 26 24 19 13 13 17 15 14 16 17 19 19 27 37 35 38 40 42 41 40 42 47 48 52 52 50 46 45 41 39 37 38 40 41 43 44 45 47 47 nan nan nan nan nan 42 45 47 47 46
26 25 24 23 21 19 20 19 18 18 18 18 18 17 17 17 16 14 13 12 12 11 12 11 11 11 10 9 9 10 13 16 14 20 21 24 25 24 21 18 13 14 17 17 17 20 30 38 41 39 40 41 44 44 44 45 48 48 48 50 50 45 46 46 46 44 42 42 43 43 44 46 47 nan nan nan nan nan 46 46 nan nan nan nan nan
31 29 28 26 24 24 23 22 22 22 21 21 20 21 20 20 20 20 17 16 16 15 15 15 14 14 14 13 13 14 18 17 16 17 22 21 22 24 24 21 18 17 17 28 35 37 37 39 42 43 42 42 41 40 41 42 46 49 49 49 46 47 47 48 49 49 47 47 nan nan nan nan nan nan nan nan nan nan nan nan nan nan nan nan nan
36 35 32 31 30 28 26 26 26 26 25 25 24 24 25 24 24 24 21 21 19 19 18 18 16 16 16 16 18 21 22 21 20 19 20 23 22 23 23 21 22 26 26 24 30 35 38 37 37 39 41 42 44 45 46 46 46 45 43 44 46 46 47 49 51 51 52 nan nan nan nan nan nan nan nan nan nan nan nan nan nan nan nan nan nan
38 36 34 36 37 35 33 32 32 32 30 29 27 28 29 29 28 26 25 24 21 21 21 20 19 19 19 21 22 23 24 24 24 24 24 24 24 24 26 26 28 28 27 29 30 34 37 41 42 40 41 41 41 41 41 42 43 43 42 44 46 48 50 52 53 53 nan nan nan nan nan nan nan nan nan nan nan nan nan nan nan nan nan nan nan
39 39 39 40 40 40 39 40 38 38 37 39 45 47 43 35 32 30 29 28 27 27 26 27 27 26 25 25 25 25 26 26 27 29 28 29 28 27 29 28 29 30 30 37 36 35 38 38 38 38 37 39 39 41 42 41 42 43 44 45 47 50 51 52 53 nan nan nan nan nan nan nan nan nan nan nan nan nan nan nan nan nan nan nan nan
40 39 38 38 38 39 39 39 38 39 42 45 48 51 54 53 51 44 37 43 40 36 35 31 30 30 28 27 29 28 28 31 39 39 37 36 33 31 34 38 38 38 44 44 40 37 35 37 37 37 37 38 40 41 42 42 43 44 46 47 49 51 52 nan nan nan nan nan nan nan nan nan nan nan nan nan nan nan nan nan nan nan nan nan nan
43 42 41 40 40 40 40 39 39 42 44 46 46 47 47 50 57 56 50 46 44 43 40 37 37 36 35 34 43 49 47 48 50 49 48 47 45 46 48 50 51 52 51 47 40 37 37 37 38 38 39 40 41 41 43 44 44 47 49 51 52 53 nan nan nan nan nan nan nan nan nan nan nan nan nan nan nan nan nan nan nan nan nan nan nan
46 46 46 46 46 45 44 43 41 44 46 45 45 45 45 44 46 53 54 51 53 53 51 49 46 42 35 36 46 47 51 53 54 54 55 57 58 58 57 56 53 52 49 46 44 41 40 41 41 41 41 41 42 44 45 46 48 50 52 53 55 nan nan nan nan nan nan nan nan nan nan nan nan nan nan nan nan nan nan nan nan nan nan nan nan
49 49 49 48 48 47 46 46 46 46 45 45 43 44 44 45 47 47 50 56 60 61 60 58 55 54 56 57 55 56 57 58 61 62 63 64 66 67 66 64 60 55 50 46 46 46 45 45 46 45 45 45 46 46 47 49 51 52 54 55 nan nan nan nan nan nan nan nan nan nan nan nan nan nan nan nan nan nan nan nan nan nan nan nan nan
47 46 47 47 47 47 47 47 47 47 47 45 44 44 43 45 48 50 50 50 53 58 63 63 59 60 62 62 65 65 65 65 66 67 67 67 67 67 67 64 65 62 57 52 49 48 48 49 50 50 49 49 48 48 48 50 51 53 53 nan nan nan nan nan nan nan nan nan nan nan nan nan nan nan nan nan nan nan nan nan nan nan nan nan nan
42 44 46 44 42 43 43 44 45 46 45 45 45 44 45 48 52 50 49 51 53 55 54 56 60 59 60 62 63 65 65 63 63 63 64 63 61 62 63 60 61 59 56 53 52 51 51 51 51 49 48 49 49 48 49 52 52 52 52 nan nan nan nan nan nan nan nan nan nan nan nan nan nan nan nan nan nan nan nan nan nan nan nan nan nan
38 38 38 38 38 37 38 39 40 40 40 41 42 43 46 49 49 50 52 55 56 56 57 56 55 56 61 61 59 58 58 58 56 56 57 57 53 54 55 54 56 54 53 50 49 50 51 50 50 48 48 49 50 49 50 52 52 53 53 nan nan nan nan nan nan nan nan nan nan nan nan nan nan nan nan nan nan nan nan nan nan nan nan nan nan
36 36 36 37 38 38 37 37 36 38 39 38 39 42 44 45 47 47 48 50 52 52 52 50 51 54 53 51 52 53 52 52 53 53 51 53 54 51 52 53 50 48 48 47 46 47 49 50 50 49 49 50 51 50 49 50 51 51 51 nan nan nan nan nan nan nan nan nan nan nan nan nan nan nan nan nan nan nan nan nan nan nan nan nan nan
37 36 36 37 39 40 39 39 40 42 40 40 40 41 41 41 41 42 43 44 45 46 46 45 47 48 49 47 45 45 50 51 54 53 49 49 49 48 49 50 48 47 47 47 47 48 49 49 50 51 50 49 49 48 47 46 47 48 nan nan nan nan nan nan nan nan nan nan nan nan nan nan nan nan nan nan nan nan nan nan nan nan nan nan nan
39 41 41 39 39 38 38 38 39 40 41 42 41 41 41 41 42 42 42 42 43 44 45 45 45 46 46 46 46 46 50 48 47 46 46 48 49 49 50 50 49 47 46 46 46 47 47 47 48 48 48 47 46 45 45 nan nan nan nan nan nan nan nan nan nan nan nan nan nan nan nan nan nan nan nan nan nan nan nan nan nan nan nan nan nan
40 39 39 38 37 38 37 37 38 39 40 41 42 42 43 43 43 44 44 44 46 46 45 46 46 46 46 46 46 46 50 49 48 46 47 49 50 50 51 50 50 49 47 46 46 46 46 46 45 45 45 46 47 nan nan nan nan nan nan nan nan nan nan nan nan nan nan nan nan nan nan nan nan nan nan nan nan nan nan nan nan nan nan nan nan
42 42 42 42 41 38 38 36 36 37 39 41 42 43 44 45 46 47 48 49 49 48 46 45 47 48 47 51 53 51 51 50 49 49 50 50 50 52 51 49 48 49 49 48 48 48 48 48 48 48 48 50 nan nan nan nan nan nan nan nan nan nan nan nan nan nan nan nan nan nan nan nan nan nan nan nan nan nan nan nan nan nan nan nan nan
46 45 44 43 43 42 41 39 38 39 39 41 43 44 45 45 46 47 49 49 51 51 46 44 44 46 50 56 55 56 52 50 48 47 46 46 47 47 47 48 49 50 51 51 50 51 51 51 51 nan nan nan nan nan nan nan nan nan nan nan nan nan nan nan nan nan nan nan nan nan nan nan nan nan nan nan nan nan nan nan nan nan nan nan nan
51 49 48 47 47 46 45 43 42 41 40 39 40 44 47 48 48 49 50 52 54 56 53 46 42 42 45 49 53 54 52 52 50 48 46 46 47 47 49 51 53 54 54 54 54 54 55 55 55 nan nan nan nan nan nan nan nan nan nan nan nan nan nan nan nan nan nan nan nan nan nan nan nan nan nan nan nan nan nan nan nan nan nan nan nan
54 53 52 51 51 51 50 48 47 45 44 44 44 45 47 48 49 50 51 53 54 55 54 50 46 47 47 49 50 52 53 52 52 52 53 53 53 54 55 55 56 56 56 57 57 57 nan nan nan nan nan nan nan nan nan nan nan nan nan nan nan nan nan nan nan nan nan nan nan nan nan nan nan nan nan nan nan nan nan nan nan nan nan nan nan
58 56 55 54 53 53 53 54 54 52 50 48 45 45 46 47 49 50 52 53 55 56 55 53 51 51 52 53 55 56 55 53 53 54 54 55 56 57 58 58 59 60 60 60 60 nan nan nan nan nan nan nan nan nan nan nan nan nan nan nan nan nan nan nan nan nan nan nan nan nan nan nan nan nan nan nan nan nan nan nan nan nan nan nan nan
61 60 59 57 57 56 56 56 57 57 56 54 51 48 46 47 49 52 53 54 55 56 56 56 55 54 53 53 55 57 58 58 57 58 59 59 60 61 61 62 63 64 64 nan nan nan nan nan nan nan nan nan nan nan nan nan nan nan nan nan nan nan nan nan nan nan nan nan nan nan nan nan nan nan nan nan nan nan nan nan nan nan nan nan nan
65 65 63 61 60 60 59 58 58 59 59 58 56 54 52 51 52 54 54 55 54 54 54 55 58 58 58 59 58 60 61 62 62 63 64 65 65 64 nan nan nan nan nan nan nan nan nan nan nan nan nan nan nan nan nan nan nan nan nan nan nan nan nan nan nan nan nan nan nan nan nan nan nan nan nan nan nan nan nan nan nan nan nan nan nan
67 67 66 65 63 62 61 61 62 63 63 61 58 56 55 55 55 55 54 53 53 52 52 53 55 58 61 62 61 63 64 66 67 67 66 nan nan nan nan nan nan nan nan nan nan nan nan nan nan nan nan nan nan nan nan nan nan nan nan nan nan nan nan nan nan nan nan nan nan nan nan nan nan nan nan nan nan nan nan nan nan nan nan nan nan
70 69 68 67 64 63 62 62 61 60 61 61 60 59 57 57 57 55 53 52 51 51 51 53 54 57 59 62 64 65 66 67 67 nan nan nan nan nan nan nan nan nan nan nan nan nan nan nan nan nan nan nan nan nan nan nan nan nan nan nan nan nan nan nan nan nan nan nan nan nan nan nan nan nan nan nan nan nan nan nan nan nan nan nan nan
70 72 71 nan 66 63 62 61 60 59 59 58 58 56 55 55 54 53 52 52 51 52 52 54 56 58 59 62 64 66 68 70 nan nan nan 75 76 76 nan nan nan nan nan nan nan nan nan nan nan nan nan nan nan nan nan nan nan nan nan nan nan nan nan nan nan nan nan nan nan nan nan nan nan nan nan nan nan nan nan nan nan nan nan nan nan
58 61 63 nan 60 60 61 61 61 60 58 57 55 54 55 54 52 50 49 52 54 55 56 58 59 61 62 62 63 67 69 nan nan nan nan nan nan nan nan nan nan nan nan nan nan nan nan nan nan nan nan nan nan nan nan nan nan nan nan nan nan nan nan nan nan nan nan nan nan nan nan nan nan nan nan nan nan nan nan nan nan nan nan nan nan
Wind_Direction
230 223 221 217 218 216 210 208 207 204 197 192 187 187 192 193 194 190 198 197 207 214 221 224 235 249 264 276 307 304 311 308 301 303 308 327 346 3 37 31 57 79 74 66 48 43 47 41 42 52 66 96 114 117 115 110 109 109 107 103 97 88 79 79 83 90 83 52 56 61 50 34 48 25 28 21 11 0 1 4 6 4 6 8 10
232 230 228 225 225 221 215 211 210 205 199 193 190 193 195 198 200 202 200 206 214 218 226 227 235 248 253 263 273 288 289 306 305 295 305 317 327 294 300 338 44 93 113 94 75 52 27 55 53 42 45 75 97 106 114 110 105 104 96 90 88 82 60 69 75 80 90 66 55 35 40 15 26 18 19 22 18 357 355 353 353 0 3 6 6
238 232 229 228 230 226 221 216 216 211 203 196 192 195 198 201 205 202 198 203 215 219 223 224 233 242 240 238 251 260 272 285 292 296 302 314 316 307 292 295 324 123 65 55 88 288 3 39 51 50 72 76 88 105 115 116 114 107 100 96 88 84 68 52 69 76 81 78 54 59 39 13 13 16 9 4 359 356 356 354 354 355 356 1 3
239 239 234 230 232 230 227 222 223 217 206 199 197 199 203 207 208 203 204 208 216 224 222 223 230 237 236 236 240 248 259 272 287 301 311 312 306 305 299 297 290 272 270 310 222 268 325 4 39 30 82 107 115 127 130 127 122 114 106 100 93 89 84 59 50 64 65 69 52 43 37 19 10 359 351 354 358 353 351 352 354 358 358 356 358
236 238 239 237 235 232 232 229 227 222 211 204 203 207 209 211 212 209 210 212 215 223 225 224 226 231 231 233 236 250 268 286 301 313 308 300 301 297 293 290 291 281 274 245 232 255 299 353 29 355 335 127 140 158 161 129 131 123 112 108 101 98 83 62 58 48 52 53 50 18 10 9 3 352 343 348 350 349 348 351 358 359 354 357 357
235 236 239 239 236 238 237 234 231 229 221 212 210 213 215 216 215 214 215 217 220 222 227 226 227 231 232 230 235 248 265 283 298 310 314 298 291 291 286 285 282 274 268 252 245 264 286 329 332 323 301 335 182 183 174 141 139 129 109 110 114 113 83 70 60 50 44 53 45 34 345 349 352 345 335 335 343 345 342 346 351 349 348 353 357
237 237 238 240 237 240 242 240 234 231 226 219 215 216 219 220 219 217 219 220 223 224 226 229 229 232 234 235 241 254 270 286 292 299 301 296 292 288 285 285 281 271 266 259 244 252 269 273 283 288 288 300 288 191 182 159 149 137 128 118 116 108 90 73 58 46 32 35 42 17 351 335 338 342 329 330 337 337 336 344 354 347 346 352 352
243 240 238 236 236 241 241 239 235 232 229 226 221 220 221 223 223 221 223 225 223 224 228 234 235 236 236 240 250 259 273 285 293 293 292 297 293 289 286 284 284 280 275 269 261 250 252 241 236 260 277 288 300 269 191 175 175 156 161 148 125 114 102 76 70 64 45 29 20 355 330 331 327 328 321 320 324 326 331 344 3 356 350 353 352
245 243 239 236 233 237 235 231 230 232 233 231 228 225 225 226 226 227 228 226 224 225 228 233 239 241 242 246 256 268 275 283 277 282 290 304 305 297 292 293 290 284 275 271 267 262 253 249 241 254 276 294 312 294 212 197 173 168 166 159 122 99 85 71 58 40 23 5 348 330 338 341 330 319 317 314 320 329 323 332 347 351 357 6 359
247 245 240 234 231 234 232 228 229 231 233 234 233 230 227 227 229 230 230 229 228 228 229 233 238 245 250 255 262 267 271 262 278 305 299 293 302 291 285 287 293 292 282 265 258 255 253 248 243 269 285 296 303 311 324 104 102 131 172 205 66 48 42 29 6 357 358 353 340 329 337 340 324 320 320 324 328 333 333 330 341 355 360 7 7
244 244 238 233 233 233 229 228 228 230 231 232 233 232 229 227 228 230 230 230 232 233 235 237 237 238 245 255 269 271 267 261 292 299 313 321 305 291 287 284 290 301 297 273 253 244 238 243 235 251 275 275 274 289 295 10 44 59 56 30 10 15 15 355 342 342 347 354 345 335 335 336 330 328 330 336 341 345 342 334 345 356 357 357 5
247 240 234 233 234 235 232 232 230 229 230 232 233 233 230 228 230 232 233 235 236 237 237 238 233 232 235 247 263 266 263 275 293 302 311 321 317 300 285 280 288 302 300 287 259 242 232 230 236 232 234 243 243 254 285 354 14 24 30 18 1 356 351 352 352 355 1 354 347 341 328 331 335 334 334 337 339 346 347 345 346 351 355 357 355
242 237 233 235 235 235 236 237 236 234 234 234 233 233 233 231 231 233 234 234 234 238 237 239 238 239 241 247 253 259 256 280 298 305 309 314 320 311 288 286 294 305 303 296 267 240 229 229 226 230 229 263 262 233 225 257 315 4 17 9 355 344 347 358 6 6 6 353 335 320 316 327 340 331 327 333 339 353 351 346 341 346 353 356 357
236 236 234 236 236 237 238 239 239 237 236 236 236 236 236 235 235 234 233 236 240 240 244 242 239 243 249 251 247 248 260 275 299 305 306 310 314 304 294 306 314 320 319 289 254 237 230 229 228 226 234 238 227 232 255 275 276 296 317 326 329 334 341 354 4 19 20 357 329 320 322 327 345 325 324 335 345 349 351 346 343 349 358 5 359
234 234 234 234 235 237 240 241 240 240 240 240 239 238 238 236 239 238 238 241 244 246 245 244 240 244 251 254 250 250 257 278 290 302 305 308 309 301 291 300 307 313 307 292 266 249 240 238 232 223 227 232 235 256 261 271 284 292 312 337 331 327 328 335 340 347 356 350 344 329 338 352 357 347 349 348 346 349 352 349 343 344 350 358 358
233 232 233 236 240 242 244 243 242 242 243 243 242 240 238 239 241 241 239 238 238 241 241 239 241 245 249 251 249 251 254 282 289 295 301 302 303 289 290 295 304 306 298 292 279 270 270 260 237 224 225 229 264 296 299 294 296 306 317 333 331 320 319 330 338 341 346 342 336 340 350 359 357 1 355 350 348 346 343 342 338 340 349 352 356
232 234 235 237 241 243 245 246 244 244 245 246 245 243 241 241 241 241 242 242 242 243 241 243 241 243 248 250 252 249 251 274 289 293 295 299 290 282 285 285 291 303 300 292 287 290 284 274 260 236 234 244 279 302 309 306 308 315 319 329 328 318 318 313 330 343 350 348 343 343 356 4 9 9 4 349 341 336 337 342 346 345 346 353 355
233 233 235 237 241 243 245 248 247 248 247 247 246 241 240 239 243 245 247 247 243 241 241 240 244 248 255 259 261 260 261 273 289 292 295 297 296 285 279 282 288 289 286 288 285 280 284 299 274 249 240 256 284 302 306 302 308 315 315 322 328 328 322 317 312 327 337 333 328 343 358 2 3 5 358 347 338 331 336 343 345 341 346 349 354
236 236 237 238 241 244 247 251 252 254 252 248 243 242 241 240 240 242 242 241 238 238 241 244 250 255 263 269 271 275 264 271 289 294 297 299 297 280 278 275 279 280 276 279 284 279 276 281 300 289 269 267 288 295 300 302 305 310 311 312 322 325 319 309 311 313 312 316 328 342 344 343 343 341 339 340 337 335 337 342 341 342 346 348 349
235 235 236 239 241 243 245 250 251 253 249 243 237 235 234 235 239 240 239 239 241 243 249 251 258 256 259 264 263 274 272 268 277 293 295 299 306 286 274 273 275 275 273 277 279 283 282 273 280 302 317 316 303 297 296 301 301 304 304 306 309 319 295 297 304 313 322 325 336 333 332 330 332 334 333 332 329 329 333 337 338 339 343 346 347
233 233 234 237 241 244 243 244 245 239 231 228 229 227 227 230 234 236 239 239 240 243 249 250 250 251 254 257 259 267 270 276 278 292 294 299 305 300 274 273 268 267 271 279 287 287 279 274 265 285 304 305 300 298 297 300 301 296 301 303 299 292 288 295 306 322 327 333 330 327 327 328 327 327 328 326 323 324 328 334 335 336 339 344 348
233 232 234 236 237 236 231 225 222 213 210 212 214 214 216 220 224 232 233 237 245 248 252 250 251 254 259 265 267 269 275 288 278 289 297 299 302 310 282 272 268 269 276 279 286 285 279 272 268 271 286 291 294 293 294 291 294 295 293 293 300 296 293 307 313 324 327 319 317 317 318 320 320 321 321 320 319 322 325 328 330 332 335 341 346
232 231 229 228 226 222 214 216 212 205 207 211 217 218 221 226 229 234 241 243 248 253 258 265 263 267 268 271 273 277 278 277 296 285 296 302 304 307 310 285 281 276 276 279 284 282 277 273 268 271 276 281 281 281 281 285 291 292 294 303 309 311 314 314 320 322 316 311 313 314 315 317 317 317 318 317 317 319 322 325 329 332 337 343 347
231 231 229 226 224 219 214 213 212 208 213 219 223 224 228 232 234 234 240 247 247 246 250 263 269 278 286 284 283 286 285 281 287 300 290 302 303 309 311 311 288 274 277 272 274 277 276 271 267 273 275 276 274 276 280 283 284 292 296 300 307 311 313 315 315 318 318 317 318 315 313 312 312 313 314 nan nan nan nan nan 329 333 338 341 344
229 229 229 227 224 221 219 218 219 219 221 227 229 229 233 237 236 235 238 241 245 242 244 254 263 267 272 276 279 288 293 294 289 295 306 298 305 308 311 311 305 291 270 268 271 268 264 266 269 271 272 273 275 275 275 279 287 290 294 299 300 302 308 314 316 316 315 313 311 308 307 308 309 nan nan nan nan nan 323 325 nan nan nan nan nan
229 228 226 226 227 226 226 227 227 228 230 229 230 231 235 240 241 242 242 244 245 246 246 251 255 260 261 266 271 278 284 286 291 289 293 301 299 307 310 307 302 298 285 247 249 259 266 268 270 270 270 273 275 275 277 281 287 291 297 301 301 305 308 309 310 312 310 308 nan nan nan nan nan nan nan nan nan nan nan nan nan nan nan nan nan
230 228 225 225 227 228 229 228 229 232 235 233 230 230 232 234 237 239 243 247 247 247 247 248 250 253 257 259 265 271 276 281 284 286 287 288 290 291 291 288 285 269 266 265 264 260 265 267 268 268 267 270 269 273 277 281 283 286 291 294 295 298 302 304 306 307 306 nan nan nan nan nan nan nan nan nan nan nan nan nan nan nan nan nan nan
236 233 231 227 226 228 228 231 232 233 238 238 235 234 234 232 232 235 239 245 246 248 250 251 254 257 257 261 264 267 271 275 279 282 283 283 286 287 288 288 286 284 280 274 272 269 266 264 267 268 270 270 272 274 277 278 281 285 289 291 293 295 296 298 301 302 nan nan nan nan nan nan nan nan nan nan nan nan nan nan nan nan nan nan nan
243 243 239 235 231 230 229 231 230 230 234 236 231 229 228 228 230 232 233 239 247 251 254 255 258 260 262 262 264 265 266 269 273 280 280 280 281 280 282 285 283 282 280 276 274 272 267 267 268 270 271 273 275 276 278 280 282 285 290 293 294 296 298 300 300 nan nan nan nan nan nan nan nan nan nan nan nan nan nan nan nan nan nan nan nan
245 247 247 246 242 240 240 241 239 236 236 238 238 237 233 233 227 228 233 233 234 239 244 253 255 259 261 263 261 263 262 261 258 271 273 273 274 267 263 269 274 273 276 280 277 278 277 270 271 272 274 274 275 278 281 283 284 287 288 291 292 292 294 nan nan nan nan nan nan nan nan nan nan nan nan nan nan nan nan nan nan nan nan nan nan
242 245 247 248 249 249 249 250 249 246 246 247 249 250 248 241 235 231 230 233 236 239 241 239 239 246 258 261 255 250 253 258 263 267 269 271 271 269 267 267 268 273 278 276 278 281 283 278 274 273 273 274 276 278 279 281 284 287 288 288 288 289 nan nan nan nan nan nan nan nan nan nan nan nan nan nan nan nan nan nan nan nan nan nan nan
241 243 245 247 249 250 251 253 255 254 253 255 258 261 260 259 250 238 236 240 243 244 244 243 243 245 250 260 266 261 258 261 266 267 267 265 265 265 265 265 269 275 279 278 275 278 277 277 276 274 274 274 274 275 278 280 281 283 284 285 285 nan nan nan nan nan nan nan nan nan nan nan nan nan nan nan nan nan nan nan nan nan nan nan nan
239 241 244 248 250 251 252 254 255 257 260 262 263 263 264 265 262 255 247 247 249 248 246 246 248 252 257 260 262 267 272 271 270 270 270 269 269 269 268 267 266 267 266 264 267 268 268 268 269 270 270 271 273 274 275 277 279 281 281 282 nan nan nan nan nan nan nan nan nan nan nan nan nan nan nan nan nan nan nan nan nan nan nan nan nan
236 239 242 246 249 250 252 253 254 256 258 260 261 264 264 263 263 262 261 258 255 253 251 249 250 257 260 266 271 272 274 274 273 273 273 273 273 272 269 266 263 263 267 269 270 269 268 269 270 270 269 269 270 273 275 278 280 281 282 nan nan nan nan nan nan nan nan nan nan nan nan nan nan nan nan nan nan nan nan nan nan nan nan nan nan
237 238 239 241 246 248 250 252 253 255 257 258 259 261 262 259 260 262 263 263 261 257 257 255 252 254 264 267 269 271 273 273 274 274 274 274 274 275 271 267 264 261 258 258 260 263 266 268 271 272 271 271 273 275 277 279 281 284 284 nan nan nan nan nan nan nan nan nan nan nan nan nan nan nan nan nan nan nan nan nan nan nan nan nan nan
237 240 241 241 242 244 248 251 253 255 256 256 258 258 258 258 259 259 259 258 259 261 259 257 259 258 260 261 261 263 267 269 271 272 274 275 274 270 268 267 267 266 267 266 265 265 265 266 268 271 273 274 274 274 275 279 280 281 280 nan nan nan nan nan nan nan nan nan nan nan nan nan nan nan nan nan nan nan nan nan nan nan nan nan nan
239 241 241 240 240 242 245 248 251 252 252 254 255 255 254 254 255 257 257 258 259 260 261 262 262 260 257 255 255 256 257 259 261 262 263 264 263 262 265 266 267 267 267 267 266 266 267 268 270 271 272 274 275 276 276 275 275 276 277 nan nan nan nan nan nan nan nan nan nan nan nan nan nan nan nan nan nan nan nan nan nan nan nan nan nan
236 236 238 239 242 242 244 246 248 250 251 250 250 251 253 253 254 255 257 258 260 261 262 261 262 263 263 260 260 259 261 260 258 258 255 255 259 263 265 267 267 265 265 265 266 266 267 268 270 272 273 274 275 275 274 274 275 276 nan nan nan nan nan nan nan nan nan nan nan nan nan nan nan nan nan nan nan nan nan nan nan nan nan nan nan
236 232 229 232 237 241 244 247 249 250 251 252 253 254 254 253 254 253 256 260 259 257 258 260 262 262 262 264 263 261 260 257 257 256 257 259 260 262 265 267 269 270 269 268 268 269 269 270 270 270 270 269 269 271 273 nan nan nan nan nan nan nan nan nan nan nan nan nan nan nan nan nan nan nan nan nan nan nan nan nan nan nan nan nan nan
233 233 228 227 237 238 242 245 248 250 251 253 253 254 256 255 254 254 251 251 256 258 261 262 262 261 262 263 263 260 261 260 259 259 260 261 263 264 267 269 271 273 274 273 271 270 269 269 269 268 267 266 267 nan nan nan nan nan nan nan nan nan nan nan nan nan nan nan nan nan nan nan nan nan nan nan nan nan nan nan nan nan nan nan nan
236 234 233 230 231 238 240 245 249 251 251 251 252 254 254 255 259 260 258 256 253 253 257 258 258 257 256 258 262 264 265 265 266 264 263 263 262 262 263 265 267 268 269 269 269 269 269 269 269 268 266 267 nan nan nan nan nan nan nan nan nan nan nan nan nan nan nan nan nan nan nan nan nan nan nan nan nan nan nan nan nan nan nan nan nan
241 241 241 239 236 238 241 247 248 246 248 250 250 252 254 255 257 259 260 260 259 258 256 255 256 259 260 262 264 265 264 265 265 265 264 265 263 262 262 263 264 265 266 266 267 269 270 270 269 nan nan nan nan nan nan nan nan nan nan nan nan nan nan nan nan nan nan nan nan nan nan nan nan nan nan nan nan nan nan nan nan nan nan nan nan
245 246 245 242 242 242 244 247 250 251 250 250 251 251 252 252 253 255 257 258 260 262 262 263 262 262 262 261 262 263 265 263 260 257 258 261 261 261 263 265 266 266 266 268 269 270 271 271 271 nan nan nan nan nan nan nan nan nan nan nan nan nan nan nan nan nan nan nan nan nan nan nan nan nan nan nan nan nan nan nan nan nan nan nan nan
246 249 249 247 246 246 245 248 250 252 253 256 258 258 255 252 250 250 253 256 258 259 263 265 265 263 262 260 261 264 266 264 262 261 262 263 263 264 265 267 267 267 268 269 269 270 nan nan nan nan nan nan nan nan nan nan nan nan nan nan nan nan nan nan nan nan nan nan nan nan nan nan nan nan nan nan nan nan nan nan nan nan nan nan nan
245 248 250 251 250 250 249 251 254 255 256 256 258 261 261 257 251 248 250 253 254 257 260 263 265 265 263 263 265 266 265 264 264 264 265 266 267 267 268 268 268 269 270 270 270 nan nan nan nan nan nan nan nan nan nan nan nan nan nan nan nan nan nan nan nan nan nan nan nan nan nan nan nan nan nan nan nan nan nan nan nan nan nan nan nan
244 247 248 250 252 253 253 253 254 257 258 258 259 263 266 263 256 252 251 251 253 256 257 259 261 262 261 261 262 264 265 265 265 266 267 268 269 269 269 269 269 269 270 nan nan nan nan nan nan nan nan nan nan nan nan nan nan nan nan nan nan nan nan nan nan nan nan nan nan nan nan nan nan nan nan nan nan nan nan nan nan nan nan nan nan
242 245 247 248 250 252 253 254 255 257 259 259 260 264 268 266 259 255 254 254 254 256 257 258 261 262 263 263 263 263 264 265 265 266 267 269 269 270 nan nan nan nan nan nan nan nan nan nan nan nan nan nan nan nan nan nan nan nan nan nan nan nan nan nan nan nan nan nan nan nan nan nan nan nan nan nan nan nan nan nan nan nan nan nan nan
242 244 246 247 248 250 251 253 256 259 260 260 261 265 268 265 259 255 255 255 256 257 258 259 261 263 265 266 266 266 267 267 268 268 268 nan nan nan nan nan nan nan nan nan nan nan nan nan nan nan nan nan nan nan nan nan nan nan nan nan nan nan nan nan nan nan nan nan nan nan nan nan nan nan nan nan nan nan nan nan nan nan nan nan nan
241 245 247 247 247 248 250 252 254 257 260 261 262 266 267 263 259 257 257 257 258 260 262 262 262 264 266 268 269 269 270 270 270 nan nan nan nan nan nan nan nan nan nan nan nan nan nan nan nan nan nan nan nan nan nan nan nan nan nan nan nan nan nan nan nan nan nan nan nan nan nan nan nan nan nan nan nan nan nan nan nan nan nan nan nan
240 242 244 nan 245 245 248 251 254 256 257 258 262 266 266 262 258 257 258 258 259 260 262 263 264 264 265 267 268 269 270 270 nan nan nan 270 269 269 nan nan nan nan nan nan nan nan nan nan nan nan nan nan nan nan nan nan nan nan nan nan nan nan nan nan nan nan nan nan nan nan nan nan nan nan nan nan nan nan nan nan nan nan nan nan nan
239 240 241 nan 244 245 248 250 251 252 253 256 260 263 263 258 256 257 262 266 270 271 270 269 268 266 266 267 268 269 269 nan nan nan nan nan nan nan nan nan nan nan nan nan nan nan nan nan nan nan nan nan nan nan nan nan nan nan nan nan nan nan nan nan nan nan nan nan nan nan nan nan nan nan nan nan nan nan nan nan nan nan nan nan nan